Weather History for KPVC - October, 2012

Change the Weather History Date:

Tuesday, October 9, 2012

  Actual Average Record
Temperature  
Mean Temperature 54 °F -  
Max Temperature 57 °F 60 °F 78 °F (2011)
Min Temperature 50 °F 48 °F 37 °F (1952)
Degree Days  
Heating Degree Days 12    
Growing Degree Days 4 (Base 50)    
Moisture  
Dew Point 49 °F    
Average Humidity 81    
Maximum Humidity 94    
Minimum Humidity 72    
Precipitation  
Precipitation 0.00 in - - ()
Sea Level Pressure  
Sea Level Pressure 30.22 in    
Wind  
Wind Speed 11 mph (ENE)    
Max Wind Speed 18 mph    
Max Gust Speed 24 mph    
Visibility 10 miles    
Events      
Averages and records for this station are not official NWS values.
T = Trace of Precipitation, MM = Missing Value Source: NWS Daily Summary

Daily Weather History Graph

Daily Weather History Graph

Search for Another Location

Airport or City:

Trip Planner

Search our weather history database for the weather conditions in past years. The results will help you decide how hot, cold, wet, or windy it might be!

Date:

Astronomy

Oct. 09, 2012 Rise Set
Actual Time 6:47 AM EDT 6:08 PM EDT
Civil Twilight 6:19 AM EDT 6:36 PM EDT
Nautical Twilight 5:46 AM EDT 7:08 PM EDT
Astronomical Twilight 5:14 AM EDT 7:40 PM EDT
Moon 12:14 AM EDT (10/9) 2:39 PM EDT (10/9)
Length of Visible Light 12h 17m
Length of Day
11h 21m
Last Quarter, 37% of the Moon is Illuminated
Oct 9
Last Quarter
Oct 15
New
Oct 21
First Quarter
Oct 29
Full
Nov 6
Last Quarter

Hourly Weather History & Observations

Time (EDT) Temp. Dew Point Humidity Pressure Visibility Wind Dir Wind Speed Gust Speed Precip Events Conditions
12:15 AM 50.0 °F 44.6 °F 82% 30.29 in 10.0 mi East 5.8 mph - N/A   Scattered Clouds
12:35 AM 51.8 °F 44.6 °F 76% 30.29 in 10.0 mi East 4.6 mph - N/A   Mostly Cloudy
1:15 AM 53.6 °F 46.4 °F 77% 30.31 in 10.0 mi ENE 5.8 mph - N/A   Mostly Cloudy
1:35 AM 53.6 °F 46.4 °F 77% 30.32 in 10.0 mi East 4.6 mph - N/A   Overcast
1:55 AM 53.6 °F 46.4 °F 77% 30.32 in 10.0 mi ESE 5.8 mph - N/A   Overcast
2:15 AM 51.8 °F 48.2 °F 88% 30.31 in 10.0 mi ESE 5.8 mph - N/A   Mostly Cloudy
3:15 AM 51.8 °F 48.2 °F 88% 30.28 in 10.0 mi East 8.1 mph - N/A   Overcast
4:15 AM 53.6 °F 48.2 °F 82% 30.26 in 10.0 mi East 12.7 mph 16.1 mph N/A   Overcast
4:35 AM 53.6 °F 48.2 °F 82% 30.25 in 10.0 mi East 15.0 mph 19.6 mph N/A   Overcast
4:55 AM 53.6 °F 48.2 °F 82% 30.26 in 10.0 mi East 11.5 mph - N/A   Overcast
5:15 AM 53.6 °F 46.4 °F 77% 30.26 in 10.0 mi East 11.5 mph 18.4 mph N/A   Overcast
5:35 AM 53.6 °F 48.2 °F 82% 30.26 in 10.0 mi East 13.8 mph 17.3 mph N/A   Overcast
5:55 AM 53.6 °F 48.2 °F 82% 30.25 in 10.0 mi East 12.7 mph 20.7 mph N/A   Overcast
6:15 AM 53.6 °F 46.4 °F 77% 30.25 in 10.0 mi East 15.0 mph 19.6 mph N/A   Overcast
6:35 AM 53.6 °F 46.4 °F 77% 30.26 in 10.0 mi East 13.8 mph 18.4 mph N/A   Overcast
6:55 AM 53.6 °F 46.4 °F 77% 30.26 in 10.0 mi East 13.8 mph 19.6 mph N/A   Overcast
7:15 AM 53.6 °F 46.4 °F 77% 30.27 in 10.0 mi East 10.4 mph - N/A   Overcast
7:35 AM 53.6 °F 48.2 °F 82% 30.26 in 10.0 mi East 10.4 mph - N/A   Overcast
7:55 AM 53.6 °F 48.2 °F 82% 30.26 in 10.0 mi East 16.1 mph 23.0 mph N/A   Overcast
8:15 AM 53.6 °F 48.2 °F 82% 30.26 in 10.0 mi East 13.8 mph 21.9 mph N/A   Overcast
8:55 AM 55.4 °F 46.4 °F 72% 30.26 in 10.0 mi East 12.7 mph 18.4 mph N/A   Overcast
9:15 AM 55.4 °F 48.2 °F 77% 30.26 in 10.0 mi East 15.0 mph - N/A   Overcast
9:35 AM 55.4 °F 48.2 °F 77% 30.26 in 10.0 mi East 12.7 mph 19.6 mph N/A   Overcast
10:15 AM 55.4 °F 50.0 °F 82% 30.27 in 9.0 mi East 11.5 mph 17.3 mph N/A   Overcast
10:35 AM 55.4 °F 50.0 °F 82% 30.26 in 10.0 mi East 13.8 mph - N/A   Overcast
10:55 AM 55.4 °F 48.2 °F 77% 30.25 in 10.0 mi East 12.7 mph - N/A   Overcast
11:15 AM 57.2 °F 50.0 °F 77% 30.25 in 10.0 mi East 13.8 mph 19.6 mph N/A   Overcast
12:15 PM 57.2 °F 51.8 °F 82% 30.24 in 10.0 mi East 15.0 mph 20.7 mph N/A   Overcast
12:36 PM 57.2 °F 51.8 °F 82% 30.22 in 10.0 mi ENE 17.3 mph 24.2 mph N/A   Overcast
1:35 PM 57.2 °F 50.0 °F 77% 30.20 in 10.0 mi ENE 15.0 mph - N/A   Overcast
1:55 PM 55.4 °F 51.8 °F 88% 30.20 in 10.0 mi East 16.1 mph - N/A   Overcast
2:15 PM 55.4 °F 51.8 °F 88% 30.20 in 10.0 mi ENE 12.7 mph - N/A   Overcast
2:35 PM 55.4 °F 50.0 °F 82% 30.20 in 10.0 mi ENE 15.0 mph 20.7 mph N/A   Overcast
2:55 PM 55.4 °F 50.0 °F 82% 30.20 in 10.0 mi ENE 15.0 mph 21.9 mph N/A   Overcast
3:15 PM 55.4 °F 48.2 °F 77% 30.19 in 10.0 mi ENE 16.1 mph 21.9 mph N/A   Overcast
3:35 PM 55.4 °F 48.2 °F 77% 30.20 in 10.0 mi ENE 16.1 mph 21.9 mph N/A   Overcast
3:55 PM 55.4 °F 48.2 °F 77% 30.19 in 10.0 mi ENE 15.0 mph 23.0 mph N/A   Overcast
4:15 PM 55.4 °F 48.2 °F 77% 30.19 in 10.0 mi ENE 13.8 mph 21.9 mph N/A   Overcast
4:35 PM 55.4 °F 48.2 °F 77% 30.18 in 10.0 mi ENE 15.0 mph 24.2 mph N/A   Overcast
4:55 PM 55.4 °F 48.2 °F 77% 30.18 in 10.0 mi ENE 16.1 mph - N/A   Overcast
5:15 PM 55.4 °F 48.2 °F 77% 30.18 in 10.0 mi NE 17.3 mph 24.2 mph N/A   Overcast
5:35 PM 55.4 °F 48.2 °F 77% 30.18 in 10.0 mi ENE 18.4 mph 23.0 mph N/A   Overcast
6:15 PM 53.6 °F 46.4 °F 77% 30.17 in 10.0 mi ENE 17.3 mph - N/A   Overcast
6:35 PM 53.6 °F 48.2 °F 82% 30.17 in 10.0 mi ENE 17.3 mph - N/A   Overcast
6:55 PM 53.6 °F 48.2 °F 82% 30.16 in 10.0 mi ENE 15.0 mph 23.0 mph N/A   Overcast
7:15 PM 53.6 °F 50.0 °F 88% 30.16 in 10.0 mi ENE 16.1 mph 20.7 mph N/A   Overcast
7:35 PM 53.6 °F 48.2 °F 82% 30.16 in 10.0 mi ENE 13.8 mph - N/A   Overcast
7:56 PM 55.4 °F 50.0 °F 82% 30.16 in 10.0 mi ENE 13.8 mph 19.6 mph N/A   Overcast
8:15 PM 55.4 °F 50.0 °F 82% 30.15 in 10.0 mi ENE 15.0 mph 20.7 mph N/A   Overcast
8:55 PM 55.4 °F 51.8 °F 88% 30.15 in 10.0 mi NE 15.0 mph 20.7 mph N/A   Overcast
9:15 PM 55.4 °F 51.8 °F 88% 30.15 in 10.0 mi ENE 12.7 mph - N/A   Overcast
9:35 PM 55.4 °F 51.8 °F 88% 30.15 in 10.0 mi ENE 11.5 mph 16.1 mph N/A   Overcast
9:55 PM 55.4 °F 51.8 °F 88% 30.15 in 10.0 mi NE 13.8 mph 18.4 mph N/A   Overcast
10:15 PM 55.4 °F 51.8 °F 88% 30.14 in 10.0 mi NE 15.0 mph - N/A   Overcast
10:35 PM 55.4 °F 51.8 °F 88% 30.15 in 10.0 mi NE 12.7 mph 18.4 mph N/A   Overcast
10:55 PM 55.4 °F 51.8 °F 88% 30.14 in 10.0 mi ENE 13.8 mph - N/A   Overcast
11:15 PM 55.4 °F 51.8 °F 88% 30.13 in 9.0 mi ENE 13.8 mph 18.4 mph N/A   Overcast
11:35 PM 55.4 °F 51.8 °F 88% 30.13 in 7.0 mi ENE 11.5 mph 18.4 mph N/A   Overcast
11:55 PM 55.4 °F 53.6 °F 94% 30.13 in 10.0 mi ENE 10.4 mph - N/A   Overcast